FW4070 Weather Reports


Display with metric or nautical units.
time (UTC)temp
F
wind
direction
speed
MPH
gust
MPH
rain 1hr
in
rain 24hr
in
rain mn
in
humidity
%
barometer
mb
20260508142547 48 259 2.0 9.0 0.00 0.19 0.19 77 1012.9
20260508142036 48 327 2.0 6.0 0.00 0.19 0.19 78 1012.9
20260508141547 48 325 3.0 7.0 0.00 0.19 0.19 78 1012.8
20260508141048 47 237 2.0 7.0 0.00 0.19 0.19 79 1012.9
20260508140551 47 290 2.0 8.0 0.00 0.19 0.19 79 1012.8
20260508140043 47 240 3.0 8.0 0.00 0.19 0.19 79 1012.8
20260508135546 47 248 1.0 8.0 0.00 0.19 0.19 82 1012.8
20260508135033 47 243 2.0 5.0 0.00 0.19 0.19 83 1012.8
20260508134529 47 244 2.0 7.0 0.00 0.19 0.19 84 1012.8
20260508134027 46 233 3.0 6.0 0.00 0.19 0.19 86 1012.7
20260508133534 46 237 3.0 6.0 0.00 0.19 0.19 87 1012.8
20260508133041 46 249 0.0 5.0 0.00 0.19 0.19 88 1012.8
20260508132545 46 250 3.0 5.0 0.00 0.19 0.19 88 1012.8
20260508132029 46 263 1.0 4.0 0.00 0.19 0.19 89 1012.9
20260508131538 45 252 2.0 4.0 0.00 0.19 0.19 90 1012.9
20260508131024 45 248 1.0 4.0 0.00 0.19 0.19 90 1012.9
20260508130535 45 248 1.0 5.0 0.00 0.19 0.19 91 1012.8
20260508130038 44 248 1.0 5.0 0.00 0.19 0.19 91 1012.8
20260508125545 44 234 1.0 3.0 0.00 0.19 0.19 91 1012.7
20260508125050 44 234 1.0 4.0 0.02 0.19 0.19 91 1012.7
20260508124602 44 234 0.0 4.0 0.04 0.19 0.19 91 1012.7
20260508124002 43 234 0.0 4.0 0.08 0.19 0.19 91 1012.6
20260508123512 43 234 0.0 4.0 0.09 0.19 0.19 92 1012.6
20260508123025 43 254 1.0 4.0 0.10 0.19 0.19 92 1012.7
20260508122525 43 229 2.0 4.0 0.10 0.19 0.19 92 1012.7
20260508122030 43 232 0.0 3.0 0.10 0.19 0.19 92 1012.6
20260508121517 43 360 0.0 4.0 0.10 0.19 0.19 92 1012.6
20260508121015 43 232 1.0 4.0 0.10 0.19 0.19 92 1012.7
20260508120530 43 229 2.0 5.0 0.10 0.19 0.19 92 1012.8
20260508120014 43 243 2.0 5.0 0.10 0.19 0.19 91 1012.8
20260508115521 43 231 2.0 5.0 0.10 0.19 0.19 91 1012.8
20260508115001 43 236 1.0 6.0 0.08 0.17 0.17 91 1012.9
20260508114527 43 234 3.0 6.0 0.06 0.15 0.15 91 1012.9
20260508114013 43 189 0.0 2.0 0.02 0.11 0.11 91 1012.9
20260508113559 43 189 0.0 3.0 0.01 0.10 0.10 91 1012.6
20260508113502 43 189 1.0 3.0 0.01 0.10 0.10 91 1012.5
20260508113122 43 189 0.0 3.0 0.00 0.09 0.09 91 1012.2
20260508112550 43 189 0.0 2.0 0.02 0.09 0.09 91 1012.0
20260508112056 43 189 0.0 0.0 0.02 0.09 0.09 91 1011.8
20260508111505 43 189 0.0 2.0 0.02 0.09 0.09 91 1011.9
20260508111053 43 189 0.0 4.0 0.02 0.09 0.09 91 1011.8
20260508110558 43 189 1.0 4.0 0.02 0.09 0.09 91 1011.7
20260508110059 43 190 1.0 4.0 0.02 0.09 0.09 91 1011.8
20260508110002 43 228 1.0 4.0 0.02 0.09 0.09 91 1011.8
20260508105547 43 218 1.0 3.0 0.02 0.09 0.09 91 1011.7
20260508105055 43 228 0.0 3.0 0.02 0.09 0.09 90 1012.0
20260508104503 43 229 1.0 3.0 0.02 0.09 0.09 90 1011.8
20260508104047 43 229 0.0 3.0 0.02 0.09 0.09 90 1011.9
20260508103555 43 229 0.0 4.0 0.02 0.09 0.09 90 1012.0
20260508103043 43 242 1.0 4.0 0.02 0.08 0.09 90 1012.0
20260508102551 43 224 1.0 4.0 0.04 0.07 0.07 90 1012.0
20260508102057 43 217 1.0 4.0 0.06 0.07 0.07 90 1011.6
20260508101543 43 233 0.0 4.0 0.07 0.07 0.07 89 1011.6
20260508101031 43 192 0.0 4.0 0.07 0.07 0.07 89 1011.7
20260508100533 43 201 1.0 4.0 0.07 0.07 0.07 89 1011.5
20260508100010 43 211 0.0 5.0 0.07 0.07 0.07 89 1011.7
20260508095526 43 244 1.0 5.0 0.07 0.07 0.07 88 1011.7
20260508095037 43 231 0.0 5.0 0.07 0.07 0.07 88 1011.9
20260508094550 43 231 1.0 9.0 0.07 0.07 0.07 87 1011.9
20260508094058 43 232 2.0 9.0 0.07 0.07 0.07 86 1012.0
20260508093559 43 236 1.0 5.0 0.07 0.07 0.07 84 1012.0
20260508093501 43 236 1.0 5.0 0.07 0.07 0.07 84 1012.0
20260508093012 44 234 2.0 5.0 0.06 0.06 0.06 83 1012.1
20260508092520 44 240 3.0 5.0 0.02 0.02 0.03 82 1011.9
20260508092056 44 202 1.0 2.0 0.01 0.01 0.01 81 1011.4
20260508091507 44 202 0.0 4.0 0.00 0.00 0.00 79 1011.1
20260508091049 44 196 1.0 4.0 0.00 0.00 0.00 78 1011.1
20260508090535 45 195 0.0 5.0 0.00 0.00 0.00 78 1011.0
20260508090049 45 173 1.0 8.0 0.00 0.00 0.00 77 1011.0
20260508085511 45 185 3.0 8.0 0.00 0.00 0.00 76 1011.1
20260508085023 45 207 2.0 6.0 0.00 0.00 0.00 76 1011.1
20260508084523 45 195 2.0 6.0 0.00 0.00 0.00 75 1011.0
20260508084034 45 195 3.0 6.0 0.00 0.00 0.00 74 1011.0
20260508083514 45 191 2.0 5.0 0.00 0.00 0.00 74 1011.0
20260508083011 45 181 2.0 5.0 0.00 0.00 0.00 74 1011.1
20260508082528 45 214 2.0 4.0 0.00 0.00 0.00 75 1011.0
20260508082027 44 195 1.0 4.0 0.00 0.00 0.00 75 1011.1
20260508081539 44 196 1.0 3.0 0.00 0.00 0.00 75 1011.2
20260508081023 44 197 1.0 5.0 0.00 0.00 0.00 75 1011.3
20260508080523 44 167 0.0 5.0 0.00 0.00 0.00 74 1011.3
20260508080018 45 167 1.0 5.0 0.00 0.00 0.00 74 1011.3
20260508075517 45 165 2.0 4.0 0.00 0.00 0.00 74 1011.3
20260508075029 45 186 0.0 4.0 0.00 0.00 0.00 75 1011.3
20260508074532 45 195 0.0 4.0 0.00 0.00 0.00 75 1011.5
20260508074025 45 196 0.0 4.0 0.00 0.00 0.00 75 1011.6
20260508073533 44 196 0.0 6.0 0.00 0.00 0.00 75 1011.6
20260508073043 44 197 0.0 6.0 0.00 0.00 0.00 75 1011.7
20260508072540 44 188 1.0 5.0 0.00 0.00 0.00 77 1011.7
20260508072053 44 199 2.0 5.0 0.00 0.00 0.00 78 1011.8
20260508071601 44 188 0.0 2.0 0.00 0.00 0.00 78 1011.7
20260508071501 44 188 0.0 2.0 0.00 0.00 0.00 78 1011.8
20260508071106 44 188 0.0 2.0 0.00 0.00 0.00 78 1011.9
20260508070552 44 189 0.0 2.0 0.00 0.00 0.00 79 1011.9
20260508065509 44 189 0.0 3.0 0.00 0.00 0.00 79 1012.1
20260508065022 44 189 1.0 3.0 0.00 0.00 0.00 79 1012.1
20260508064547 44 190 1.0 3.0 0.00 0.00 0.00 80 1012.2
20260508064035 44 191 0.0 3.0 0.00 0.00 0.00 80 1012.2
20260508063538 43 192 1.0 2.0 0.00 0.00 0.00 80 1012.3
20260508063028 43 193 0.0 3.0 0.00 0.00 0.00 81 1012.4
20260508062530 43 194 1.0 3.0 0.00 0.00 0.00 81 1012.4
20260508062044 43 200 0.0 3.0 0.00 0.00 0.00 82 1012.4
20260508061558 42 201 0.0 0.0 0.00 0.00 0.00 83 1012.4
20260508061055 42 201 0.0 0.0 0.00 0.00 0.00 83 1012.4
20260508060503 42 201 0.0 0.0 0.00 0.00 0.00 84 1012.4
20260508060017 42 201 0.0 0.0 0.00 0.00 0.00 84 1012.4
20260508055518 42 201 0.0 0.0 0.00 0.00 0.00 83 1012.5
20260508055024 42 201 0.0 0.0 0.00 0.00 0.00 83 1012.4
20260508054553 42 201 0.0 0.0 0.00 0.00 0.00 83 1012.5
20260508054018 42 201 0.0 0.0 0.00 0.00 0.00 83 1012.5
20260508053522 42 201 0.0 0.0 0.00 0.00 0.00 83 1012.5
20260508053039 42 201 0.0 0.0 0.00 0.00 0.00 83 1012.7
20260508052550 42 201 0.0 1.0 0.00 0.00 0.00 83 1012.6
20260508052055 42 201 0.0 1.0 0.00 0.00 0.00 83 1012.5
20260508051601 42 201 0.0 2.0 0.00 0.00 0.00 84 1012.5
20260508051105 42 201 0.0 2.0 0.00 0.00 0.00 84 1012.4
20260508050549 42 201 0.0 0.0 0.00 0.00 0.00 85 1012.5
20260508050036 41 201 0.0 2.0 0.00 0.00 0.00 85 1012.6
20260508045536 41 201 0.0 3.0 0.00 0.00 0.00 87 1012.6
20260508045042 41 201 0.0 4.0 0.00 0.00 0.00 88 1012.7
20260508044548 41 202 1.0 4.0 0.00 0.00 0.00 89 1012.7
20260508044053 40 225 0.0 3.0 0.00 0.00 0.00 90 1012.6
20260508043601 40 225 0.0 3.0 0.00 0.00 0.00 90 1012.5
20260508043101 39 228 0.0 0.0 0.00 0.00 0.00 90 1012.8
20260508042511 39 228 0.0 0.0 0.00 0.00 0.00 90 1012.8
20260508042018 39 228 0.0 0.0 0.00 0.00 0.00 90 1012.8
20260508041520 39 228 0.0 0.0 0.00 0.00 0.00 90 1012.8
20260508041038 39 228 0.0 0.0 0.00 0.00 0.00 89 1012.7
20260508040542 39 228 0.0 0.0 0.00 0.00 0.00 90 1012.6
20260508040056 39 228 0.0 0.0 0.00 0.00 0.00 90 1012.6
20260508035554 39 228 0.0 0.0 0.00 0.00 0.00 89 1012.6
20260508035057 39 228 0.0 0.0 0.00 0.00 0.00 89 1012.6
20260508034514 39 228 0.0 0.0 0.00 0.00 0.00 90 1012.5
20260508034009 39 228 0.0 0.0 0.00 0.00 0.00 90 1012.4
20260508033512 39 228 0.0 1.0 0.00 0.00 0.00 90 1012.4
20260508033057 39 228 0.0 1.0 0.00 0.00 0.00 90 1012.4
20260508032505 39 228 0.0 2.0 0.00 0.00 0.00 90 1012.4
20260508032005 39 228 1.0 2.0 0.00 0.00 0.00 90 1012.4
20260508031604 39 228 0.0 2.0 0.00 0.00 0.00 90 1012.6
20260508031002 39 228 0.0 2.0 0.00 0.00 0.00 89 1012.6
20260508030517 39 229 1.0 2.0 0.00 0.00 0.00 89 1012.7
20260508030032 40 229 1.0 2.0 0.00 0.00 0.00 89 1012.7
20260508025529 40 229 0.0 2.0 0.00 0.00 0.00 88 1012.8
20260508025027 40 229 0.0 2.0 0.00 0.00 0.00 88 1013.0
20260508024525 40 229 0.0 2.0 0.00 0.00 0.00 88 1012.9
20260508024031 40 229 0.0 2.0 0.00 0.00 0.00 88 1012.9
20260508023539 41 229 1.0 2.0 0.00 0.00 0.00 87 1012.9
20260508023042 41 229 0.0 0.0 0.00 0.00 0.00 87 1012.9
20260508022551 41 229 0.0 0.0 0.00 0.00 0.00 86 1012.8
20260508022057 41 229 0.0 1.0 0.00 0.00 0.00 86 1012.9
20260508021506 42 229 0.0 1.0 0.00 0.00 0.00 85 1012.9
20260508021002 42 229 0.0 0.0 0.00 0.00 0.00 85 1012.8
20260508020509 42 229 0.0 0.0 0.00 0.00 0.00 85 1012.7
20260508020014 42 229 0.0 0.0 0.00 0.00 0.00 84 1012.7
20260508015529 43 229 0.0 0.0 0.00 0.00 0.00 84 1012.7
20260508015039 43 229 0.0 1.0 0.00 0.00 0.00 83 1012.7
20260508014527 43 229 0.0 2.0 0.00 0.00 0.00 83 1012.6
20260508014019 44 229 0.0 1.0 0.00 0.00 0.00 82 1012.5
20260508013509 44 229 0.0 1.0 0.00 0.00 0.00 80 1012.6
20260508013012 45 229 0.0 1.0 0.00 0.00 0.00 80 1012.7
20260508012506 45 229 0.0 1.0 0.00 0.00 0.00 79 1012.6
20260508012008 45 229 0.0 1.0 0.00 0.00 0.00 79 1012.5
20260508011524 45 229 0.0 2.0 0.00 0.00 0.00 78 1012.5
20260508011030 46 229 0.0 4.0 0.00 0.00 0.00 78 1012.4
20260508010537 46 229 1.0 5.0 0.00 0.00 0.00 77 1012.4
20260508010042 46 231 2.0 6.0 0.00 0.00 0.00 76 1012.4
20260508005533 47 257 2.0 10.0 0.00 0.00 0.00 75 1012.4
20260508005037 47 335 2.0 16.0 0.00 0.00 0.00 74 1012.5
20260508004545 47 257 5.0 16.0 0.00 0.00 0.00 73 1012.4
20260508004028 47 259 3.0 9.0 0.00 0.00 0.00 73 1012.4
20260508003533 47 243 3.0 7.0 0.00 0.00 0.00 74 1012.2
20260508003042 47 234 2.0 7.0 0.00 0.00 0.00 74 1012.1
20260508002529 47 223 2.0 5.0 0.00 0.00 0.00 74 1011.8
20260508002029 47 231 0.0 5.0 0.00 0.00 0.00 74 1011.8
20260508001514 47 231 2.0 7.0 0.00 0.00 0.00 72 1011.8
20260508001100 47 229 3.0 8.0 0.00 0.00 0.00 71 1011.9
20260508000555 47 246 3.0 10.0 0.00 0.00 0.00 70 1011.8
20260508000122 47 216 4.0 10.0 0.00 0.00 0.00 70 1011.6
20260507235514 48 233 3.0 18.0 0.00 0.00 0.00 69 1011.5
20260507235018 48 231 8.0 18.0 0.00 0.00 0.00 68 1011.5
20260507234541 48 232 3.0 14.0 0.00 0.00 0.00 67 1011.5
20260507234043 49 247 7.0 14.0 0.00 0.00 0.00 66 1011.4
20260507233545 49 240 4.0 16.0 0.00 0.00 0.00 65 1011.5
20260507233049 50 253 5.0 16.0 0.00 0.00 0.00 63 1011.4
20260507232532 50 267 5.0 16.0 0.00 0.00 0.00 62 1011.4
20260507232024 50 246 6.0 14.0 0.00 0.00 0.00 61 1011.4
20260507231537 50 251 7.0 14.0 0.00 0.00 0.00 61 1011.4
20260507231043 50 310 7.0 14.0 0.00 0.00 0.00 60 1011.4
20260507230535 51 252 6.0 12.0 0.00 0.00 0.00 59 1011.2
20260507230011 51 237 6.0 9.0 0.00 0.00 0.00 59 1011.1
20260507225527 51 290 5.0 10.0 0.00 0.00 0.00 58 1011.1
20260507225012 51 232 6.0 14.0 0.00 0.00 0.00 58 1011.2
20260507224526 51 273 8.0 15.0 0.00 0.00 0.00 56 1011.3
20260507224008 51 245 6.0 15.0 0.00 0.00 0.00 57 1011.3
20260507223527 51 284 7.0 14.0 0.00 0.00 0.00 55 1011.3
20260507223051 51 246 5.0 11.0 0.00 0.00 0.00 55 1011.3
20260507222553 52 236 6.0 12.0 0.00 0.00 0.00 55 1011.3
20260507222059 52 232 6.0 13.0 0.00 0.00 0.00 54 1011.4
20260507221504 52 248 8.0 17.0 0.00 0.00 0.00 53 1011.2
20260507221004 51 254 6.0 17.0 0.00 0.00 0.00 53 1011.2
20260507220520 51 223 8.0 14.0 0.00 0.00 0.00 52 1011.2
20260507215537 51 269 9.0 17.0 0.00 0.00 0.00 50 1011.3
20260507215126 52 261 8.0 12.0 0.00 0.00 0.00 52 1011.3
20260507214525 52 240 7.0 21.0 0.00 0.00 0.00 52 1011.3
20260507214050 52 267 6.0 15.0 0.00 0.00 0.00 51 1011.3
20260507213559 52 242 8.0 17.0 0.00 0.00 0.00 50 1011.1
20260507213015 52 254 8.0 17.0 0.00 0.00 0.00 49 1011.1
20260507212513 52 263 5.0 12.0 0.00 0.00 0.00 50 1011.1
20260507212054 52 242 6.0 12.0 0.00 0.00 0.00 50 1011.1
20260507211606 53 256 7.0 12.0 0.00 0.00 0.00 46 1011.0
20260507211047 53 246 5.0 13.0 0.00 0.00 0.00 51 1010.9
20260507210552 52 250 6.0 12.0 0.00 0.00 0.00 51 1010.9
20260507210057 52 261 4.0 12.0 0.00 0.00 0.00 51 1010.9
20260507205542 53 288 5.0 12.0 0.00 0.00 0.00 50 1010.9
20260507205034 53 252 5.0 11.0 0.00 0.00 0.00 52 1010.9
20260507204542 53 248 5.0 10.0 0.00 0.00 0.00 50 1011.0
20260507204046 53 234 5.0 12.0 0.00 0.00 0.00 49 1010.9
20260507203554 53 249 5.0 15.0 0.00 0.00 0.00 49 1010.9
20260507203102 53 246 5.0 15.0 0.00 0.00 0.00 50 1010.9
20260507202511 53 231 3.0 10.0 0.00 0.00 0.00 51 1011.0
20260507202026 53 235 5.0 11.0 0.00 0.00 0.00 52 1011.0
20260507201535 53 231 4.0 11.0 0.00 0.00 0.00 56 1011.0
20260507201044 53 267 4.0 10.0 0.00 0.00 0.00 54 1011.1
20260507200548 53 256 5.0 10.0 0.00 0.00 0.00 52 1011.1
20260507200053 53 265 3.0 10.0 0.00 0.00 0.00 54 1011.2
20260507195556 54 269 5.0 9.0 0.00 0.00 0.00 53 1011.2
20260507195017 54 309 4.0 9.0 0.00 0.00 0.00 56 1011.2
20260507194517 54 326 3.0 10.0 0.00 0.00 0.00 53 1011.1
20260507194029 54 238 4.0 11.0 0.00 0.00 0.00 50 1011.2
20260507193538 54 248 5.0 13.0 0.00 0.00 0.00 48 1011.2
20260507193053 54 271 4.0 14.0 0.00 0.00 0.00 50 1011.3
20260507192546 53 253 5.0 13.0 0.00 0.00 0.00 48 1011.3
20260507192052 53 298 4.0 11.0 0.00 0.00 0.00 48 1011.4
20260507191555 53 298 4.0 11.0 0.00 0.00 0.00 51 1011.4
20260507191056 53 256 4.0 11.0 0.00 0.00 0.00 52 1011.3
20260507190538 53 234 6.0 11.0 0.00 0.00 0.00 52 1011.4
20260507190052 53 242 4.0 11.0 0.00 0.00 0.00 53 1011.4
20260507185559 53 246 4.0 11.0 0.00 0.00 0.00 54 1011.5
20260507185008 53 256 4.0 11.0 0.00 0.00 0.00 59 1011.6
20260507184520 53 258 5.0 10.0 0.00 0.00 0.00 58 1011.5
20260507184018 53 252 4.0 9.0 0.00 0.00 0.00 65 1011.7
20260507183532 53 252 4.0 8.0 0.00 0.00 0.00 64 1011.7
20260507183035 53 281 1.0 5.0 0.00 0.00 0.00 67 1011.6
20260507182540 53 271 1.0 7.0 0.00 0.00 0.00 67 1011.7
20260507182030 53 284 2.0 7.0 0.00 0.00 0.00 71 1011.7
20260507181537 52 277 2.0 6.0 0.00 0.00 0.00 70 1011.8
20260507181024 52 231 2.0 6.0 0.00 0.00 0.00 69 1011.8
20260507180534 53 254 3.0 7.0 0.00 0.00 0.00 67 1011.7
20260507180036 53 281 3.0 8.0 0.00 0.00 0.00 67 1011.7
20260507175539 53 300 2.0 8.0 0.00 0.00 0.00 70 1011.7
20260507175028 52 279 2.0 8.0 0.00 0.00 0.00 70 1011.7
20260507174514 52 336 2.0 10.0 0.00 0.00 0.00 71 1011.8
20260507174018 52 234 5.0 10.0 0.00 0.00 0.00 69 1011.9
20260507173523 53 232 3.0 6.0 0.00 0.00 0.00 70 1011.8
20260507173027 53 273 2.0 7.0 0.00 0.00 0.00 72 1012.0
20260507172532 52 300 1.0 8.0 0.00 0.00 0.00 73 1011.9
20260507172036 52 11 3.0 10.0 0.00 0.00 0.00 71 1012.0
20260507171600 52 256 3.0 10.0 0.00 0.00 0.00 70 1012.0
20260507171052 52 323 3.0 9.0 0.00 0.00 0.00 72 1012.0
20260507170601 52 263 4.0 8.0 0.00 0.00 0.00 70 1012.0
20260507170503 52 235 3.0 8.0 0.00 0.00 0.00 71 1012.0
20260507170002 53 284 2.0 7.0 0.00 0.00 0.00 72 1012.1
20260507165548 53 238 3.0 8.0 0.00 0.00 0.00 73 1012.1
20260507165056 52 244 4.0 8.0 0.00 0.00 0.00 70 1012.1
20260507164506 52 320 3.0 9.0 0.00 0.00 0.00 69 1012.1
20260507164038 53 230 4.0 7.0 0.00 0.00 0.00 69 1012.1
20260507163522 53 279 2.0 8.0 0.00 0.00 0.00 73 1012.1
20260507163011 52 281 2.0 6.0 0.00 0.00 0.00 73 1012.2
20260507162556 52 277 2.0 6.0 0.00 0.00 0.00 72 1012.2
20260507162103 52 327 2.0 8.0 0.00 0.00 0.00 70 1012.3
20260507161511 53 234 2.0 9.0 0.00 0.00 0.00 71 1012.3
20260507161014 52 250 3.0 10.0 0.00 0.00 0.00 72 1012.3
20260507160600 52 313 3.0 12.0 0.00 0.00 0.00 73 1012.3
20260507160502 52 231 3.0 12.0 0.00 0.00 0.00 73 1012.3
20260507160007 52 227 6.0 12.0 0.00 0.00 0.00 69 1012.3
20260507155511 52 310 3.0 9.0 0.00 0.00 0.00 70 1012.5
20260507155023 52 232 2.0 8.0 0.00 0.00 0.00 71 1012.4
20260507154530 52 319 3.0 8.0 0.00 0.00 0.00 70 1012.4
20260507154037 52 260 3.0 8.0 0.00 0.00 0.00 70 1012.5
20260507153541 52 284 1.0 7.0 0.00 0.00 0.00 72 1012.6
20260507153032 52 246 2.0 8.0 0.00 0.00 0.00 72 1012.5
20260507152537 52 268 2.0 7.0 0.00 0.00 0.00 72 1012.5
20260507152044 51 289 1.0 9.0 0.00 0.00 0.00 73 1012.5
20260507151524 51 236 2.0 9.0 0.00 0.00 0.00 73 1012.5
20260507151033 50 245 2.0 9.0 0.00 0.00 0.00 74 1012.6
20260507150543 50 238 4.0 9.0 0.00 0.00 0.00 72 1012.6
20260507150050 50 251 4.0 8.0 0.00 0.01 0.00 72 1012.7
20260507145558 50 256 1.0 8.0 0.00 0.01 0.00 73 1012.7
20260507145006 50 284 0.0 6.0 0.00 0.01 0.00 73 1012.7
20260507144513 50 267 2.0 6.0 0.00 0.01 0.00 72 1012.7
20260507144018 50 237 3.0 8.0 0.00 0.01 0.00 71 1012.7
20260507143531 50 244 3.0 8.0 0.00 0.01 0.00 72 1012.8
20260507143037 49 241 1.0 10.0 0.00 0.01 0.00 72 1012.8